sat.trackr.live / text

‹ back to catalog

SATMAR

NORAD 64551 · 2025-135Z

PAYLOAD ACTIVE UNKNOWN

§ Identity

Operator
Country
SPN
Launch date
2025-06-23
Launch site
AFWTR
Launch vehicle
Mass (kg)
RCS (m²)

External: N2YO · Heavens-Above · Gunter

§ Orbital elements

Epoch: 2026-05-24T21:16:41.305152Z

Period
94.45 min
Inclination
97.4587°
Eccentricity
0.0001346
Mean motion
15.24564227 rev/d
Perigee alt
491.2 km
Apogee alt
493.0 km
Semi-major
6,870.2 km
B*
2.7315e-4
RAAN
260.7300°
Arg perigee
57.4755°
Mean anomaly
302.6613°
Rev number
5,137

§ Raw data

SATMAR1 64551U 25135Z   26144.88658918  .00006657  00000+0  27315-3 0  99912 64551  97.4587 260.7300 0001346  57.4755 302.6613 15.24564227 51373

JSON: /api/v1/satellites/64551 · /tle

For live sub-satellite position, see the globe view (requires WebGL).

§ Visibility from observer

Set your observer location to see the next 7 days of passes ≥ 10°. The values pass through the URL so the page stays shareable.

No JS? Fill the form by hand. The geolocation button needs JavaScript.

§ Radio — SatNOGS DB

ModeDescriptionDownlinkUplink
FM Mode S - Transmitter 1 2.222 GHz
FM Mode S - Transmitter 2 2.281 GHz
FM Mode V - VDES 1 161.863 MHz
FM Mode V - VDES 2 157.263 MHz
FM Telemetry 400.501 MHz

5 transmitters · refreshed weekly from db.satnogs.org